This is the latest recevied weather packets stored in our database for station/object NI4CE-10. If no packets are shown the sender has not sent any weather packets the latest 10 day(s).
| Time | Temp. | Humidity | Pressure | Rain* | Wind** | Luminosity | Snow |
|---|---|---|---|---|---|---|---|
| 1788032899 | 37.22° C | 100% | 1017.4 hPa | 0 mm | - | - | - |
| 1788032599 | 37.22° C | 100% | 1017.4 hPa | 0 mm | - | - | - |
| 1788032299 | 36.67° C | 100% | 1017.6 hPa | 0 mm | - | - | - |
| 1788031999 | 36.67° C | 100% | 1017.8 hPa | 0 mm | - | - | - |
| 1788031699 | 37.78° C | 100% | 1017.7 hPa | 0 mm | - | - | - |
| 1788031399 | 37.78° C | 100% | 1017.6 hPa | 0 mm | - | - | - |
| 1788031099 | 37.22° C | 100% | 1017.6 hPa | 0 mm | - | - | - |
| 1788030799 | 36.67° C | 100% | 1017.7 hPa | 0 mm | - | - | - |
| 1788030509 | 37.22° C | 100% | 1017.7 hPa | 0 mm | - | - | - |
| 1788030199 | 36.67° C | 100% | 1017.7 hPa | 0 mm | - | - | - |
| 1788029899 | 36.67° C | 100% | 1017.8 hPa | 0 mm | - | - | - |
| 1788029599 | 36.67° C | 100% | 1017.7 hPa | 0 mm | - | - | - |
| 1788029299 | 37.22° C | 100% | 1017.8 hPa | 0 mm | - | - | - |
| 1788028999 | 37.22° C | 100% | 1017.8 hPa | 0 mm | - | - | - |
| 1788028699 | 37.22° C | 100% | 1017.8 hPa | 0 mm | - | - | - |
| 1788028399 | 38.33° C | 100% | 1017.7 hPa | 0 mm | - | - | - |
| 1788028099 | 38.89° C | 100% | 1017.9 hPa | 0 mm | - | - | - |
| 1788027799 | 40° C | 100% | 1017.9 hPa | 0 mm | - | - | - |
| 1788027499 | 41.67° C | 100% | 1018.1 hPa | 0 mm | - | - | - |
| 1788027199 | 42.78° C | 100% | 1018.3 hPa | 0 mm | - | - | - |
| 1788026899 | 47.78° C | 100% | 1018.5 hPa | 0 mm | - | - | - |
| 1788026599 | 48.89° C | 100% | 1018.6 hPa | 0 mm | - | - | - |
| 1788026299 | 47.78° C | 100% | 1018.7 hPa | 0 mm | - | - | - |
| 1788026000 | 45.56° C | 100% | 1018.8 hPa | 0 mm | - | - | - |
| 1788025699 | 43.89° C | 100% | 1019 hPa | 0 mm | - | - | - |
* Rain latest hour (hover to see other rain measurements)
** Current wind speed in m/s (hover to see current wind gust speed)